This demonstration page uses our WeatherBlox Daily Observations layout. Learn more.

Left ArrowRight Arrow

36.17497, -115.13722

Hourly Observations for September 1, 2017

Temp ( °F °C ) Dew Point ( °F °C ) Humidity (%) Winds ( mph kmh ) Pressure ( in mb ) Visibility ( mi km ) Precip ( " mm )
12:53 am 00:53 Clear 87 30.6 45 7.2 23 23 N 12 19 29.87 1012 10 16 0.00 0.00
1:53 am 01:53 Clear 86 30 47 8.3 26 26 NNW 20 31 29.87 1012 10 16 0.00 0.00
2:53 am 02:53 Clear 84 28.9 47 8.3 27 27 NNW 17 28 29.88 1012 10 16 0.00 0.00
3:53 am 03:53 Clear 84 28.9 47 8.3 27 27 N 17 28 29.88 1012 10 16 0.00 0.00
4:53 am 04:53 Clear 82 27.8 48 8.9 31 31 N 14 22 29.90 1013 10 16 0.00 0.00
5:53 am 05:53 Clear 82 27.8 47 8.3 29 29 N 14 22 29.91 1013 10 16 0.00 0.00
6:53 am 06:53 Sunny 82 27.8 46 7.8 28 28 N 13 20 29.93 1014 10 16 0.00 0.00
7:53 am 07:53 Sunny 85 29.4 46 7.8 26 26 N 12 19 29.94 1014 10 16 0.00 0.00
8:53 am 08:53 Sunny 90 32.2 44 6.7 20 20 N 10 17 29.95 1014 10 16 0.00 0.00
9:53 am 09:53 Sunny 94 34.4 41 5 16 16 N 12 19 29.95 1014 10 16 0.00 0.00
10:53 am 10:53 Sunny 97 36.1 40 4.4 14 14 NNE 8 13 29.95 1014 10 16 0.00 0.00
11:53 am 11:53 Sunny 98 36.7 40 4.4 13 13 VRB 5 7 29.93 1014 10 16 0.00 0.00
12:53 pm 12:53 Sunny 99 37.2 40 4.4 13 13 Calm 29.91 1013 10 16 0.00 0.00
1:53 pm 13:53 Sunny 102 38.9 39 3.9 11 11 E 3 6 29.88 1012 10 16 0.00 0.00
2:53 pm 14:53 Sunny 103 39.4 39 3.9 11 11 VRB 6 9 29.85 1011 10 16 0.00 0.00
3:53 pm 15:53 Sunny 103 39.4 38 3.3 11 11 SW 6 9 29.83 1010 10 16 0.00 0.00
4:53 pm 16:53 Sunny 103 39.4 38 3.3 11 11 SSW 6 9 29.82 1010 10 16 0.00 0.00
5:53 pm 17:53 Sunny 102 38.9 38 3.3 11 11 Calm 29.81 1009 10 16 0.00 0.00
6:53 pm 18:53 Sunny 102 38.9 38 3.3 11 11 Calm 29.81 1009 10 16 0.00 0.00
7:53 pm 19:53 Clear 100 37.8 40 4.4 13 13 SW 5 7 29.82 1010 10 16 0.00 0.00
8:53 pm 20:53 Clear 96 35.6 43 6.1 16 16 WNW 5 7 29.83 1010 10 16 0.00 0.00
9:53 pm 21:53 Clear 93 33.9 44 6.7 18 18 NNW 7 11 29.84 1010 10 16 0.00 0.00
10:53 pm 22:53 Clear 89 31.7 43 6.1 20 20 NW 8 13 29.84 1011 10 16 0.00 0.00
11:53 pm 23:53 Clear 89 31.7 44 6.7 21 21 WNW 6 9 29.85 1011 10 16 0.00 0.00

Powered by AerisWeather